Regional Weather Roundup
Issued by NWS

Home | Current Version | Previous Version | Text Only | Print | Product List | Glossary Off
Versions: 1 2 3 4 5 6 7 8 9 10 11 12 13 14 15 16 17 18 19 20 21 22 23 24 25 26 27 28 29 30 31 32 33 34 35 36 37 38 39 40 41 42 43 44 45 46 47 48 49 50

000
ASUS43 KDTX 310710
RWRMI
MICHIGAN HOURLY REGIONAL WEATHER ROUNDUP
NATIONAL WEATHER SERVICE DETROIT/PONTIAC MI
300 AM EDT FRI OCT 31 2014

NOTE: "FAIR" INDICATES FEW OR NO CLOUDS BELOW 12,000 FEET WITH NO
SIGNIFICANT WEATHER AND/OR OBSTRUCTION TO VISIBILITY.

MIZ047>049-052>055-059>063-066>070-074>076-081>083-310800-
SOUTHEAST LOWER MICHIGAN

CITY           SKY/WX    TMP DP  RH WIND       PRES   REMARKS
ADRIAN         CLOUDY    43  36  76 SW5       29.98F
ALMA           CLOUDY    43  38  83 S6        29.92F
ANN ARBOR      CLOUDY    44  34  67 SW8       29.96F
BAD AXE        CLOUDY    42  40  90 SW6       29.92F
CARO           CLOUDY    41  39  90 CALM      29.93S
DETROIT CITY   CLOUDY    48  35  60 SW8       29.97F
DETROIT        CLOUDY    46  35  65 SW10      29.98F
FLINT          CLOUDY    46  37  71 SW6       29.95F
GROSSE ILE     CLOUDY    46  37  71 SW6       29.97S
HILLSDALE      CLOUDY    44  37  78 S5        29.96F
HOWELL         CLOUDY    42  36  78 CALM      29.95F

CITY           SKY/WX    TMP DP  RH WIND       PRES   REMARKS
JACKSON        CLOUDY    44  36  73 SW5       29.95F
LAMBERTVILLE   CLOUDY    45  34  65 SW3       29.99F
LANSING        CLOUDY    44  36  73 SW7       29.95F
LAPEER         CLOUDY    43  37  78 SW6       29.94F
MASON          CLOUDY    42  36  78 CALM      29.95F
MONROE         CLOUDY    45  37  76 SW6       29.97S
MT. CLEMENS    CLOUDY    46  38  73 SW7       29.94F
PONTIAC        CLOUDY    44  35  70 SW5       29.94F
PORT HOPE        N/A     44  39  82 SW6       29.90F
PORT HURON     CLOUDY    43  39  87 S5        29.95F
TRI CITIES     LGT RAIN  44  38  79 S6        29.93F
TROY           CLOUDY    47  35  63 S6        29.97F
SAGINAW HB     CLOUDY    43  37  81 SW6       29.93S
$$
MIZ043>046-050>051-056>058-064>065-071>073-077>080-310800-
SOUTHWEST LOWER MICHIGAN

CITY           SKY/WX    TMP DP  RH WIND       PRES   REMARKS
BATTLE CREEK   CLOUDY    45  36  70 SW7       29.95F
BENTON HARBOR  CLOUDY    49  37  63 W14G20    29.97F
BIG RAPIDS     LGT RAIN  41  41 100 NW5       29.92S
COLDWATER      LGT RAIN  45  38  76 SW3       29.96F
FREMONT        LGT RAIN  42  39  90 NW5       29.94S
HOLLAND        LGT RAIN  48  40  73 W9        29.96F
GRAND RAPIDS   LGT RAIN  45  39  79 SW7       29.93F
IONIA          DRIZZLE   44  39  81 SW6       29.92F
KALAMAZOO      CLOUDY    45  37  73 SW6       29.96F
LUDINGTON      RAIN      40  38  90 N6        29.95S
MARSHALL       CLOUDY    43  36  75 SW5       29.95F
MOUNT PLEASANT DRIZZLE   44  38  80 CALM      29.91F
MUSKEGON       LGT RAIN  45  39  79 NW12      29.96R
SOUTH HAVEN    CLOUDY    50  39  66 NW10G16   29.96F
$$
MIZ016>042-310800-
NORTHERN LOWER MICHIGAN

CITY           SKY/WX    TMP DP  RH WIND       PRES   REMARKS
ALPENA         CLOUDY    41  39  93 CALM      29.89S
BEAVER ISLAND  LGT RAIN  39  38  94 N9        29.92R WCI  33
BELLAIRE       MIX PCPN  41  39  93 CALM      29.91S
CADILLAC       DRIZZLE   37  36  95 CALM      29.90S
CHARLEVOIX     LGT RAIN  41  38  91 N9        29.92S
FRANKFORT      LGT RAIN  41  38  87 NW9G18    29.93S
GAYLORD        LGT RAIN  38  37  97 CALM      29.88S FOG
GRAYLING       LGT RAIN  39  38  97 W3        29.90S
HARBOR SPRINGS RAIN      40  38  93 CALM      29.89S
HOUGHTON LAKE  LGT RAIN  41  37  86 W7        29.89F
MANISTEE       CLOUDY    43  36  75 NW15      29.94F
OSCODA         LGT RAIN  42  41  99 SW5       29.90S
PELLSTON       LGT RAIN  40  39  97 NW5       29.90S
ROGERS CITY    CLOUDY    39  39 100 W5        29.90
TRAVERSE CITY  LGT RAIN  42  38  85 W7        29.91S
$$
MIZ007>008-015-310800-
EASTERN UPPER MICHIGAN

CITY           SKY/WX    TMP DP  RH WIND       PRES   REMARKS
KINROSS        CLOUDY    34  34 100 N14       29.93R WCI  24
MACKINAC ISLAN LGT RAIN  39  38  99 N10G17    29.90R WCI  32
NEWBERRY       CLOUDY    34  33  96 N14G22    29.95R WCI  25
S. S. MARIE    LGT RAIN  35  32  88 NE9       29.93F WCI  28
MUNISING         N/A     38  35  89 N36G44    30.04R WCI  25
$$
MIZ004>006-011>014-085-310800-
CENTRAL UPPER MICHIGAN

CITY           SKY/WX    TMP DP  RH WIND       PRES   REMARKS
MANISTIQUE     DRIZZLE   37  36  94 N8        29.95R WCI  31
ESCANABA       CLOUDY    36  30  80 N15G23    29.99R WCI  26
MENOMINEE      CLOUDY    37  30  75 N13G21    30.01R WCI  29
SAWYER-GWINN   CLOUDY    32  30  93 N31G39    30.04R WCI  17
$$
MIZ001>003-009>011-084-310800-
WESTERN UPPER MICHIGAN

CITY           SKY/WX    TMP DP  RH WIND       PRES   REMARKS
IRON MOUNTAIN  CLOUDY    34  29  82 N15G29    30.06R WCI  24
HOUGHTON       CLOUDY    31  24  75 N22G31    30.20R WCI  18
COPPER HARBOR    N/A     36  27  69 NE33G45   30.20R WCI  22
IRONWOOD       CLOUDY    30  25  80 N12G20    30.25R WCI  21
$$

ABBREVIATIONS USED IN REMARKS
   TC - TEMPERATURE IN CELSIUS
  WCI - WIND CHILL INDEX
   HX - HEAT INDEX
  VSB - VISIBILITY




USA.gov is the U.S. government's official web portal to all federal, state and local government web resources and services.